Location: Pasadena, ca
(34.1243°N, 118.1037°W)
Time: 10:00:23
(UTC-08:00)

OTV 5 (USA 277) - Pass Details

Date: 15 October 2017
Orbit: 404 x 417 km, 43.0° (Epoch: 07 September)

Event Time Altitude Azimuth Distance (km) Brightness Sun altitude
Rises 20:26:18 0° 302° (WNW) 2,355 ? -27.3°
Reaches altitude 10° 20:28:47 10° 319° (NW) 1,491 ? -27.8°
Enters shadow 20:29:15 12° 325° (NW) 1,354 ? -27.9°
